Location: Berlin
(52.5200°N, 13.4050°E)
Time: 02:00:27
(UTC+02:00)

ISS - Visible Passes

Search period start: 16 September 2019 00:00
Search period end: 26 September 2019 00:00
Orbit: 411 x 421 km, 51.6° (Epoch: 16 September)

Date Brightness Start Highest point End Pass type
(mag) Time Alt. Az. Time Alt. Az. Time Alt. Az.
19 Sep -1.4 20:39:03 10° S 20:39:17 11° SSE 20:39:17 11° SSE visible
20 Sep -1.5 21:25:28 10° SW 21:26:20 16° SSW 21:26:20 16° SSW visible
21 Sep -2.6 20:37:21 10° SSW 20:40:09 25° SSE 20:40:12 25° SSE visible
22 Sep -2.1 19:49:27 10° S 19:51:48 18° SE 19:53:55 11° ESE visible
22 Sep -2.5 21:24:49 10° WSW 21:26:50 32° SW 21:26:50 32° SW visible
23 Sep -3.3 20:36:27 10° SW 20:39:38 43° SSE 20:40:23 36° ESE visible
23 Sep -0.8 22:12:53 10° W 22:13:18 13° W 22:13:18 13° W visible
24 Sep -2.9 19:48:11 10° SW 19:51:12 33° SSE 19:53:51 12° E visible
24 Sep -2.8 21:24:22 10° WSW 21:26:45 43° WSW 21:26:45 43° WSW visible
25 Sep -3.8 20:35:53 10° WSW 20:39:11 65° SSE 20:40:07 41° ESE visible
25 Sep -0.8 22:12:31 10° W 22:13:01 14° W 22:13:01 14° W visible
